TimeAEST,TemperatureF,Dew PointF,Humidity,Sea Level PressureIn,VisibilityMPH,Wind Direction,Wind SpeedMPH,Gust SpeedMPH,PrecipitationIn,Events,Conditions,WindDirDegrees,DateUTC
12:00 AM,64,57,71,30.04,,SSE,11.5,,,,,160,2013-06-30 14:00:00
12:00 AM,64.4,57.2,77,30.04,6.2,SSE,11.5,-,N/A,,Partly Cloudy,150,2013-06-30 14:00:00
12:30 AM,64.4,55.4,73,30.01,-9999.0,SSE,11.5,-,N/A,,Clear,150,2013-06-30 14:30:00
1:00 AM,63,56,70,30.03,,SSE,12.7,,,,,150,2013-06-30 15:00:00
1:00 AM,62.6,55.4,77,30.01,-9999.0,SSE,12.7,-,N/A,,Clear,150,2013-06-30 15:00:00
1:30 AM,60.8,57.2,88,30.01,-9999.0,SSE,11.5,-,N/A,,Clear,150,2013-06-30 15:30:00
2:00 AM,60.8,55.4,82,30.01,-9999.0,SSE,12.7,-,N/A,,Clear,150,2013-06-30 16:00:00
2:30 AM,60.8,55.4,82,29.98,-9999.0,SSE,10.4,-,N/A,,Clear,150,2013-06-30 16:30:00
3:00 AM,61,54,72,29.99,,SSE,11.5,,,,,150,2013-06-30 17:00:00
3:00 AM,60.8,53.6,77,29.98,-9999.0,SSE,11.5,-,N/A,,Clear,150,2013-06-30 17:00:00
3:30 AM,60.8,55.4,82,29.98,-9999.0,SE,10.4,-,N/A,,Clear,140,2013-06-30 17:30:00
4:00 AM,60,54,75,29.99,,ESE,9.2,,,,,120,2013-06-30 18:00:00
4:00 AM,60.8,53.6,77,29.98,-9999.0,ESE,9.2,-,N/A,,Clear,120,2013-06-30 18:00:00
4:30 AM,60.8,53.6,77,29.98,-9999.0,SE,9.2,-,N/A,,Clear,130,2013-06-30 18:30:00
5:00 AM,64.4,51.8,64,29.98,-9999.0,South,9.2,-,N/A,,Clear,190,2013-06-30 19:00:00
5:30 AM,62.6,51.8,68,29.98,6.2,South,6.9,-,N/A,,Unknown,180,2013-06-30 19:30:00
6:00 AM,64,50,50,30.00,19,South,9.2,,,,Partly Cloudy,190,2013-06-30 20:00:00
6:00 AM,64.4,50.0,59,30.01,-9999.0,South,9.2,-,N/A,,Clear,190,2013-06-30 20:00:00
6:30 AM,64.4,48.2,56,30.01,-9999.0,South,9.2,-,N/A,,Clear,180,2013-06-30 20:30:00
7:00 AM,64,47,44,30.03,,South,10.4,,,,,180,2013-06-30 21:00:00
7:00 AM,64.4,48.2,56,30.01,-9999.0,South,10.4,-,N/A,,Clear,180,2013-06-30 21:00:00
7:30 AM,64.4,46.4,52,30.04,-9999.0,South,10.4,-,N/A,,Clear,180,2013-06-30 21:30:00
8:00 AM,66.2,44.6,46,30.04,-9999.0,South,10.4,-,N/A,,Clear,180,2013-06-30 22:00:00
8:30 AM,66.2,44.6,46,30.04,-9999.0,South,9.2,-,N/A,,Clear,190,2013-06-30 22:30:00
9:00 AM,68,45,32,30.07,31,South,10.4,,,,Partly Cloudy,170,2013-06-30 23:00:00
9:00 AM,68.0,44.6,43,30.06,-9999.0,South,10.4,-,N/A,,Clear,170,2013-06-30 23:00:00
9:30 AM,69.8,41.0,35,30.06,-9999.0,South,11.5,-,N/A,,Clear,170,2013-06-30 23:30:00
10:00 AM,71,40,22,30.08,,South,13.8,,,,,170,2013-07-01 00:00:00
10:00 AM,71.6,41.0,33,30.06,-9999.0,South,13.8,-,N/A,,Clear,170,2013-07-01 00:00:00
10:30 AM,71.6,41.0,33,30.06,-9999.0,SSE,15.0,-,N/A,,Clear,160,2013-07-01 00:30:00
11:00 AM,73.4,42.8,33,30.04,-9999.0,SSE,15.0,-,N/A,,Clear,160,2013-07-01 01:00:00
11:30 AM,73.4,41.0,31,30.04,-9999.0,SSE,15.0,-,N/A,,Clear,150,2013-07-01 01:30:00
12:00 PM,74,41,20,30.03,,SSE,11.5,,,,,160,2013-07-01 02:00:00
12:00 PM,73.4,41.0,31,30.01,-9999.0,SSE,11.5,-,N/A,,Clear,160,2013-07-01 02:00:00
12:30 PM,75.2,41.0,29,30.01,-9999.0,SSE,12.7,-,N/A,,Clear,150,2013-07-01 02:30:00
1:00 PM,76,43,20,30.00,,SE,12.7,,,,,130,2013-07-01 03:00:00
1:00 PM,77.0,42.8,29,29.98,-9999.0,SE,12.7,-,N/A,,Clear,130,2013-07-01 03:00:00
1:30 PM,75.2,44.6,34,29.98,-9999.0,ESE,17.3,-,N/A,,Clear,120,2013-07-01 03:30:00
2:00 PM,75.2,44.6,34,29.95,-9999.0,ESE,16.1,-,N/A,,Clear,110,2013-07-01 04:00:00
2:30 PM,75.2,44.6,34,29.95,-9999.0,ESE,15.0,-,N/A,,Clear,120,2013-07-01 04:30:00
3:00 PM,75,46,25,29.96,31,SE,16.1,,,,Partly Cloudy,130,2013-07-01 05:00:00
3:00 PM,75.2,46.4,36,29.95,-9999.0,SE,16.1,-,N/A,,Clear,130,2013-07-01 05:00:00
3:30 PM,73.4,46.4,38,29.95,-9999.0,ESE,13.8,-,N/A,,Clear,120,2013-07-01 05:30:00
4:00 PM,74,46,26,29.96,,SE,15.0,,,,,140,2013-07-01 06:00:00
4:00 PM,73.4,46.4,38,29.95,-9999.0,SE,15.0,-,N/A,,Clear,140,2013-07-01 06:00:00
4:30 PM,71.6,48.2,43,29.95,-9999.0,SE,13.8,-,N/A,,Clear,140,2013-07-01 06:30:00
5:00 PM,69.8,48.2,46,29.95,-9999.0,SE,11.5,-,N/A,,Clear,140,2013-07-01 07:00:00
5:30 PM,68.0,48.2,49,29.98,-9999.0,South,6.9,-,N/A,,Clear,170,2013-07-01 07:30:00
6:00 PM,65,49,45,29.99,,South,4.6,,,,,190,2013-07-01 08:00:00
6:00 PM,64.4,48.2,56,29.98,-9999.0,South,4.6,-,N/A,,Clear,190,2013-07-01 08:00:00
6:30 PM,60.8,50.0,68,30.01,-9999.0,SW,4.6,-,N/A,,Clear,230,2013-07-01 08:30:00
7:00 PM,63,48,48,30.02,,South,6.9,,,,,170,2013-07-01 09:00:00
7:00 PM,62.6,48.2,59,30.01,-9999.0,South,6.9,-,N/A,,Clear,170,2013-07-01 09:00:00
7:30 PM,62.6,48.2,59,30.01,-9999.0,South,5.8,-,N/A,,Clear,180,2013-07-01 09:30:00
8:00 PM,59.0,50.0,72,30.04,-9999.0,Calm,Calm,-,N/A,,Clear,0,2013-07-01 10:00:00
8:30 PM,59.0,50.0,72,30.04,-9999.0,North,1.2,-,N/A,,Clear,350,2013-07-01 10:30:00
9:00 PM,59,51,69,30.05,,WNW,1.2,,,,,300,2013-07-01 11:00:00
9:00 PM,59.0,51.8,77,30.04,-9999.0,WNW,1.2,-,N/A,,Clear,300,2013-07-01 11:00:00
9:30 PM,57.2,51.8,82,30.04,-9999.0,West,3.5,-,N/A,,Clear,280,2013-07-01 11:30:00
10:00 PM,56,52,83,30.06,,North,1.2,,,,,0,2013-07-01 12:00:00
10:00 PM,55.4,51.8,88,30.04,-9999.0,North,1.2,-,N/A,,Clear,360,2013-07-01 12:00:00
10:30 PM,55.4,51.8,88,30.04,-9999.0,Calm,Calm,-,N/A,,Clear,0,2013-07-01 12:30:00
11:00 PM,53.6,51.8,94,30.06,-9999.0,West,4.6,-,N/A,,Clear,280,2013-07-01 13:00:00
11:30 PM,55.4,51.8,88,30.04,-9999.0,West,5.8,-,N/A,,Clear,280,2013-07-01 13:30:00